913  
NZUS43 KILX 202210  
HWRCRS  
 
NWR HOURLY WEATHER ROUNDUP  
NATIONAL WEATHER SERVICE LINCOLN IL  
400 PM CST TUE FEB 20 2018  
 
 
CITY SKY/WX TMP DP RH WIND PRES REMARKS
 
CHAMPAIGN LGT RAIN 56 56 100 NW9 29.97R FOG  
LAWRENCEVILLE PTSUNNY 76 58 53 S24G33 30.02R  
PEORIA RAIN 39 37 92 NW10G20 30.01R FOG WCI 32  
SPRINGFIELD HVY RAIN 48 45 89 NW20 29.99R FOG  

 
 
 
CITY SKY/WX TMP DP RH WIND PRES REMARKS
 
BLOOMINGTON RAIN 53 52 96 S10 29.97R FOG  
DANVILLE LGT RAIN 65 62 90 S12 29.92F  
DECATUR LGT RAIN 55 55 100 NW8 29.97R FOG  
EFFINGHAM FAIR 73 61 67 S18G24 29.99R  
FLORA FAIR 74 61 62 S25G32 30.00R  
GALESBURG LGT RAIN 34 34 100 NW13G18 30.03S WCI 25  
JACKSONVILLE RAIN 39 38 94 NW17 30.01R WCI 30  
LACON RAIN 38 37 97 NW9G18 30.01R WCI 32  
LA SALLE LGT RAIN 37 35 94 W16G23 30.01R WCI 27  
LINCOLN RAIN 50 50 100 W5 29.99R  
LITCHFIELD LGT RAIN 54 54 99 NW10 29.96R  
 
CITY SKY/WX TMP DP RH WIND PRES REMARKS
 
MACOMB LGT RAIN 35 35 99 NW14 30.08R WCI 26  
MATTOON LGT RAIN 68 62 81 S13G22 29.95R  
MOLINE MIX PCPN 34 31 88 W13 30.04R WCI 25  
OLNEY PTSUNNY 73 58 58 S18G26 30.01R  
PARIS CLOUDY 70 63 77 S20G25 29.98R  
PONTIAC RAIN 51 50 98 SW6 29.97R  
QUINCY LGT RAIN 35 33 92 NW16 30.07R FOG WCI 25  
RANTOUL RAIN 58 57 99 W7 29.97R  
ROBINSON PTSUNNY 74 58 58 S20 30.01R  
TAYLORVILLE DRIZZLE 55 55 100 N3 29.97S  
TERRE HAUTE CLOUDY 74 58 57 S16G29 29.99R  

 
 
 
CITY SKY/WX TMP DP RH WIND PRES REMARKS
 
BURLINGTON MIX PCPN 32 28 85 NW13G20 30.07R WCI 22  
CHICAGO LGT RAIN 53 50 89 SW8 29.90R  
DES MOINES FLURRIES 22 16 78 NW16 30.15R WCI 8  
EVANSVILLE PTSUNNY 75 56 51 S20G29 30.07R  
INDIANAPOLIS CLOUDY 74 55 51 S22G31 30.01S  
KANSAS CITY CLOUDY 23 19 85 N14 30.15R WCI 11  
MILWAUKEE LGT RAIN 44 42 93 CALM 29.83R  
ST LOUIS LGT RAIN 50 49 96 NW10 29.98R  

 
 
 
 
CLICK HERE TO GO TO PREVIOUS BULLETINS.

The Nexlab IL Page Main Text Page

The Nexlab IL Page Main Text Page